Time,TemperatureF,DewpointF,PressureIn,WindDirection,WindDirectionDegrees,WindSpeedMPH,WindSpeedGustMPH,Humidity,HourlyPrecipIn,Conditions,Clouds,dailyrainin,SoftwareType,DateUTC
2013-03-26 00:02:00,19.0,18.0,30.33,North,0,0.0,-999.0,92,-99.99,,,-99.99,,2013-03-26 05:02:00,
2013-03-26 00:12:00,19.0,18.0,30.33,North,0,0.0,-999.0,92,-99.99,,,-99.99,,2013-03-26 05:12:00,
2013-03-26 00:22:00,19.0,18.0,30.33,North,0,0.0,-999.0,92,-99.99,,,-99.99,,2013-03-26 05:22:00,
2013-03-26 00:32:00,18.0,18.0,30.33,North,0,0.0,-999.0,100,-99.99,,,-99.99,,2013-03-26 05:32:00,
2013-03-26 00:42:00,18.0,18.0,30.32,North,0,0.0,-999.0,100,-99.99,,,-99.99,,2013-03-26 05:42:00,
2013-03-26 00:52:00,18.0,18.0,30.32,North,0,0.0,-999.0,100,-99.99,,,-99.99,,2013-03-26 05:52:00,
2013-03-26 01:02:00,18.0,18.0,30.32,North,0,0.0,-999.0,100,-99.99,,,-99.99,,2013-03-26 06:02:00,
2013-03-26 01:12:00,18.0,18.0,30.32,North,0,0.0,-999.0,100,-99.99,,,-99.99,,2013-03-26 06:12:00,
2013-03-26 01:22:00,18.0,18.0,30.32,North,0,0.0,-999.0,100,-99.99,,,-99.99,,2013-03-26 06:22:00,
2013-03-26 01:32:00,18.0,18.0,30.32,North,0,0.0,-999.0,100,-99.99,,,-99.99,,2013-03-26 06:32:00,
2013-03-26 01:42:00,18.0,18.0,30.32,North,0,0.0,-999.0,100,-99.99,,,-99.99,,2013-03-26 06:42:00,
2013-03-26 01:52:00,19.0,18.0,30.32,North,0,0.0,-999.0,92,-99.99,,,-99.99,,2013-03-26 06:52:00,
2013-03-26 02:02:00,19.0,18.0,30.32,North,0,0.0,-999.0,92,-99.99,,,-99.99,,2013-03-26 07:02:00,
2013-03-26 02:12:00,18.0,18.0,30.32,North,0,0.0,-999.0,100,-99.99,,,-99.99,,2013-03-26 07:12:00,
2013-03-26 02:22:00,18.0,18.0,30.32,North,0,0.0,-999.0,100,-99.99,,,-99.99,,2013-03-26 07:22:00,
2013-03-26 02:32:00,18.0,18.0,30.32,North,0,0.0,-999.0,100,-99.99,,,-99.99,,2013-03-26 07:32:00,
2013-03-26 02:42:00,18.0,18.0,30.31,North,0,0.0,-999.0,100,-99.99,,,-99.99,,2013-03-26 07:42:00,
2013-03-26 02:52:00,16.0,16.0,30.31,North,0,0.0,-999.0,100,-99.99,,,-99.99,,2013-03-26 07:52:00,
2013-03-26 03:02:00,16.0,16.0,30.31,North,0,0.0,-999.0,100,-99.99,,,-99.99,,2013-03-26 08:02:00,
2013-03-26 03:12:00,18.0,18.0,30.31,North,0,0.0,-999.0,100,-99.99,,,-99.99,,2013-03-26 08:12:00,
2013-03-26 03:22:00,16.0,16.0,30.30,North,0,0.0,-999.0,100,-99.99,,,-99.99,,2013-03-26 08:22:00,
2013-03-26 03:32:00,16.0,16.0,30.31,South,170,3.0,-999.0,100,-99.99,,,-99.99,,2013-03-26 08:32:00,
2013-03-26 03:42:00,12.0,12.0,30.31,South,190,3.0,-999.0,100,-99.99,,,-99.99,,2013-03-26 08:42:00,
2013-03-26 03:52:00,12.0,12.0,30.30,SW,220,5.0,-999.0,100,-99.99,,,-99.99,,2013-03-26 08:52:00,
2013-03-26 04:02:00,12.0,12.0,30.30,SW,220,5.0,-999.0,100,-99.99,,,-99.99,,2013-03-26 09:02:00,
2013-03-26 04:12:00,12.0,12.0,30.30,SW,230,5.0,-999.0,100,-99.99,,,-99.99,,2013-03-26 09:12:00,
2013-03-26 04:22:00,12.0,12.0,30.29,SSW,210,6.0,-999.0,100,-99.99,,,-99.99,,2013-03-26 09:22:00,
2013-03-26 04:32:00,12.0,12.0,30.29,SSW,200,5.0,-999.0,100,-99.99,,,-99.99,,2013-03-26 09:32:00,
2013-03-26 04:42:00,14.0,14.0,30.29,SSW,210,3.0,-999.0,100,-99.99,,,-99.99,,2013-03-26 09:42:00,
2013-03-26 04:52:00,12.0,12.0,30.29,SW,220,3.0,-999.0,100,-99.99,,,-99.99,,2013-03-26 09:52:00,
2013-03-26 05:02:00,12.0,12.0,30.29,SW,220,3.0,-999.0,100,-99.99,,,-99.99,,2013-03-26 10:02:00,
2013-03-26 05:12:00,12.0,12.0,30.29,SW,230,6.0,-999.0,100,-99.99,,,-99.99,,2013-03-26 10:12:00,
2013-03-26 05:22:00,12.0,12.0,30.28,WSW,240,6.0,-999.0,100,-99.99,,,-99.99,,2013-03-26 10:22:00,
2013-03-26 05:32:00,12.0,12.0,30.28,WSW,240,5.0,-999.0,100,-99.99,,,-99.99,,2013-03-26 10:32:00,
2013-03-26 05:42:00,12.0,12.0,30.28,WSW,240,5.0,-999.0,100,-99.99,,,-99.99,,2013-03-26 10:42:00,
2013-03-26 05:52:00,12.0,12.0,30.28,WSW,240,5.0,-999.0,100,-99.99,,,-99.99,,2013-03-26 10:52:00,
2013-03-26 06:03:00,12.0,12.0,30.28,WSW,240,5.0,-999.0,100,-99.99,,,-99.99,,2013-03-26 11:03:00,
2013-03-26 06:12:00,10.0,10.0,30.28,SW,230,6.0,-999.0,100,-99.99,,,-99.99,,2013-03-26 11:12:00,
2013-03-26 06:22:00,12.0,12.0,30.28,SW,220,5.0,-999.0,100,-99.99,,,-99.99,,2013-03-26 11:22:00,
2013-03-26 06:32:00,10.0,10.0,30.28,SW,230,6.0,-999.0,100,-99.99,,,-99.99,,2013-03-26 11:32:00,
2013-03-26 06:42:00,10.0,10.0,30.28,SW,230,6.0,-999.0,100,-99.99,,,-99.99,,2013-03-26 11:42:00,
2013-03-26 06:52:00,12.0,12.0,30.28,SW,220,5.0,-999.0,100,-99.99,,,-99.99,,2013-03-26 11:52:00,
2013-03-26 07:03:00,12.0,12.0,30.28,SW,220,5.0,-999.0,100,-99.99,,,-99.99,,2013-03-26 12:03:00,
2013-03-26 07:12:00,12.0,12.0,30.28,SSW,210,3.0,-999.0,100,-99.99,,,-99.99,,2013-03-26 12:12:00,
2013-03-26 07:22:00,10.0,10.0,30.28,SW,230,3.0,-999.0,100,-99.99,,,-99.99,,2013-03-26 12:22:00,
2013-03-26 07:32:00,10.0,10.0,30.28,North,0,0.0,-999.0,100,-99.99,,,-99.99,,2013-03-26 12:32:00,
2013-03-26 07:42:00,10.0,10.0,30.28,North,0,0.0,-999.0,100,-99.99,,,-99.99,,2013-03-26 12:42:00,
2013-03-26 07:52:00,12.0,12.0,30.28,North,0,0.0,-999.0,100,-99.99,,,-99.99,,2013-03-26 12:52:00,
2013-03-26 08:03:00,12.0,12.0,30.28,North,0,0.0,-999.0,100,-99.99,,,-99.99,,2013-03-26 13:03:00,
2013-03-26 08:12:00,10.0,10.0,30.27,North,0,0.0,-999.0,100,-99.99,,,-99.99,,2013-03-26 13:12:00,
2013-03-26 08:22:00,12.0,12.0,30.28,SW,220,3.0,-999.0,100,-99.99,,,-99.99,,2013-03-26 13:22:00,
2013-03-26 08:32:00,14.0,14.0,30.28,SW,220,3.0,-999.0,100,-99.99,,,-99.99,,2013-03-26 13:32:00,
2013-03-26 08:42:00,14.0,14.0,30.28,North,0,0.0,-999.0,100,-99.99,,,-99.99,,2013-03-26 13:42:00,
2013-03-26 08:52:00,16.0,16.0,30.28,North,0,0.0,-999.0,100,-99.99,,,-99.99,,2013-03-26 13:52:00,
2013-03-26 09:02:00,16.0,16.0,30.28,North,0,0.0,-999.0,100,-99.99,,,-99.99,,2013-03-26 14:02:00,
2013-03-26 09:11:00,18.0,18.0,30.29,SW,220,6.0,-999.0,100,-99.99,,,-99.99,,2013-03-26 14:11:00,
2013-03-26 09:22:00,18.0,18.0,30.28,North,0,0.0,-999.0,100,-99.99,,,-99.99,,2013-03-26 14:22:00,
2013-03-26 09:32:00,18.0,18.0,30.28,North,0,0.0,-999.0,100,-99.99,,,-99.99,,2013-03-26 14:32:00,
2013-03-26 09:42:00,19.0,19.0,30.28,North,0,0.0,-999.0,100,-99.99,,,-99.99,,2013-03-26 14:42:00,
2013-03-26 09:52:00,21.0,21.0,30.29,SW,230,3.0,-999.0,100,-99.99,,,-99.99,,2013-03-26 14:52:00,
2013-03-26 10:02:00,21.0,21.0,30.29,SW,230,3.0,-999.0,100,-99.99,,,-99.99,,2013-03-26 15:02:00,
2013-03-26 10:12:00,23.0,23.0,30.28,SW,220,3.0,-999.0,100,-99.99,,,-99.99,,2013-03-26 15:12:00,
2013-03-26 10:22:00,25.0,23.0,30.28,SSW,200,8.0,-999.0,92,-99.99,,,-99.99,,2013-03-26 15:22:00,
2013-03-26 10:33:00,27.0,23.0,30.28,South,180,7.0,-999.0,86,-99.99,,,-99.99,,2013-03-26 15:33:00,
2013-03-26 10:42:00,27.0,23.0,30.27,South,180,9.0,-999.0,86,-99.99,,,-99.99,,2013-03-26 15:42:00,
2013-03-26 10:52:00,28.0,25.0,30.27,South,170,7.0,-999.0,86,-99.99,,,-99.99,,2013-03-26 15:52:00,
2013-03-26 11:02:00,28.0,25.0,30.27,South,170,7.0,-999.0,86,-99.99,,,-99.99,,2013-03-26 16:02:00,
2013-03-26 11:12:00,30.0,25.0,30.27,SSE,160,7.0,-999.0,80,-99.99,,,-99.99,,2013-03-26 16:12:00,
2013-03-26 11:22:00,30.0,25.0,30.26,SE,140,5.0,-999.0,80,-99.99,,,-99.99,,2013-03-26 16:22:00,
2013-03-26 11:32:00,32.0,25.0,30.26,South,170,8.0,-999.0,74,-99.99,,,-99.99,,2013-03-26 16:32:00,
2013-03-26 11:42:00,34.0,25.0,30.26,South,180,9.0,-999.0,69,-99.99,,,-99.99,,2013-03-26 16:42:00,
2013-03-26 11:53:00,34.0,27.0,30.26,SSE,160,8.0,-999.0,74,-99.99,,,-99.99,,2013-03-26 16:53:00,
2013-03-26 12:02:00,34.0,27.0,30.26,SSE,160,8.0,-999.0,74,-99.99,,,-99.99,,2013-03-26 17:02:00,
2013-03-26 12:12:00,36.0,25.0,30.26,South,180,12.0,-999.0,64,-99.99,,,-99.99,,2013-03-26 17:12:00,
2013-03-26 12:22:00,36.0,27.0,30.25,South,180,8.0,-999.0,69,-99.99,,,-99.99,,2013-03-26 17:22:00,
2013-03-26 12:32:00,36.0,25.0,30.24,South,180,10.0,-999.0,64,-99.99,,,-99.99,,2013-03-26 17:32:00,
2013-03-26 12:42:00,37.0,25.0,30.23,South,170,12.0,-999.0,60,-99.99,,,-99.99,,2013-03-26 17:42:00,
2013-03-26 12:52:00,37.0,25.0,30.22,SE,140,10.0,-999.0,60,-99.99,,,-99.99,,2013-03-26 17:52:00,
2013-03-26 13:02:00,37.0,25.0,30.22,SE,140,10.0,-999.0,60,-99.99,,,-99.99,,2013-03-26 18:02:00,
2013-03-26 13:12:00,37.0,27.0,30.21,SE,140,9.0,-999.0,64,-99.99,,,-99.99,,2013-03-26 18:12:00,
2013-03-26 13:23:00,39.0,27.0,30.20,SE,140,10.0,-999.0,60,-99.99,,,-99.99,,2013-03-26 18:23:00,
2013-03-26 13:33:00,39.0,28.0,30.20,SE,140,10.0,-999.0,64,-99.99,,,-99.99,,2013-03-26 18:33:00,
2013-03-26 13:42:00,39.0,27.0,30.19,SE,140,13.0,-999.0,60,-99.99,,,-99.99,,2013-03-26 18:42:00,
2013-03-26 13:52:00,39.0,27.0,30.19,SSE,150,10.0,-999.0,60,-99.99,,,-99.99,,2013-03-26 18:52:00,
2013-03-26 14:02:00,39.0,27.0,30.19,SSE,150,10.0,-999.0,60,-99.99,,,-99.99,,2013-03-26 19:02:00,
2013-03-26 14:12:00,41.0,28.0,30.18,SE,130,10.0,-999.0,60,-99.99,,,-99.99,,2013-03-26 19:12:00,
2013-03-26 14:22:00,43.0,28.0,30.17,ESE,120,14.0,20.0,56,-99.99,,,-99.99,,2013-03-26 19:22:00,
2013-03-26 14:32:00,43.0,28.0,30.16,SE,130,14.0,20.0,56,-99.99,,,-99.99,,2013-03-26 19:32:00,
2013-03-26 14:42:00,43.0,30.0,30.16,SE,130,16.0,20.0,60,-99.99,,,-99.99,,2013-03-26 19:42:00,
2013-03-26 14:52:00,43.0,28.0,30.15,SE,140,14.0,20.0,56,-99.99,,,-99.99,,2013-03-26 19:52:00,
2013-03-26 15:02:00,43.0,28.0,30.15,SE,140,14.0,20.0,56,-99.99,,,-99.99,,2013-03-26 20:02:00,
2013-03-26 15:12:00,45.0,28.0,30.15,SSE,150,13.0,17.0,52,-99.99,,,-99.99,,2013-03-26 20:12:00,
2013-03-26 15:22:00,45.0,30.0,30.14,SE,130,13.0,-999.0,56,-99.99,,,-99.99,,2013-03-26 20:22:00,
2013-03-26 15:32:00,45.0,30.0,30.13,SE,130,14.0,-999.0,56,-99.99,,,-99.99,,2013-03-26 20:32:00,
2013-03-26 15:42:00,46.0,32.0,30.13,SE,130,14.0,18.0,57,-99.99,,,-99.99,,2013-03-26 20:42:00,
2013-03-26 15:52:00,46.0,32.0,30.12,SE,130,14.0,20.0,57,-99.99,,,-99.99,,2013-03-26 20:52:00,
2013-03-26 16:02:00,46.0,32.0,30.12,SE,130,14.0,20.0,57,-99.99,,,-99.99,,2013-03-26 21:02:00,
2013-03-26 16:12:00,46.0,32.0,30.11,SE,140,13.0,21.0,57,-99.99,,,-99.99,,2013-03-26 21:12:00,
2013-03-26 16:22:00,48.0,34.0,30.10,SE,130,15.0,23.0,57,-99.99,,,-99.99,,2013-03-26 21:22:00,
2013-03-26 16:32:00,48.0,34.0,30.10,SE,140,14.0,23.0,57,-99.99,,,-99.99,,2013-03-26 21:32:00,
2013-03-26 16:42:00,48.0,34.0,30.10,SSE,150,15.0,20.0,57,-99.99,,,-99.99,,2013-03-26 21:42:00,
2013-03-26 16:52:00,48.0,34.0,30.09,SSE,150,15.0,20.0,57,-99.99,,,-99.99,,2013-03-26 21:52:00,
2013-03-26 17:02:00,48.0,34.0,30.09,SSE,150,15.0,20.0,57,-99.99,,,-99.99,,2013-03-26 22:02:00,
2013-03-26 17:12:00,50.0,34.0,30.08,SSE,150,13.0,-999.0,53,-99.99,,,-99.99,,2013-03-26 22:12:00,
2013-03-26 17:22:00,50.0,34.0,30.07,SE,130,14.0,-999.0,53,-99.99,,,-99.99,,2013-03-26 22:22:00,
2013-03-26 17:33:00,50.0,34.0,30.07,SE,140,10.0,18.0,53,-99.99,,,-99.99,,2013-03-26 22:33:00,
2013-03-26 17:42:00,52.0,34.0,30.07,SE,140,10.0,-999.0,50,-99.99,,,-99.99,,2013-03-26 22:42:00,
2013-03-26 17:52:00,52.0,36.0,30.05,ESE,120,15.0,20.0,53,-99.99,,,-99.99,,2013-03-26 22:52:00,
2013-03-26 18:01:00,52.0,36.0,30.05,ESE,120,15.0,20.0,53,-99.99,,,-99.99,,2013-03-26 23:01:00,
2013-03-26 18:10:00,50.0,36.0,30.05,ESE,110,15.0,-999.0,57,-99.99,,,-99.99,,2013-03-26 23:10:00,
2013-03-26 18:22:00,50.0,36.0,30.04,ESE,110,16.0,23.0,57,-99.99,,,-99.99,,2013-03-26 23:22:00,
2013-03-26 18:32:00,48.0,36.0,30.04,ESE,110,13.0,17.0,61,-99.99,,,-99.99,,2013-03-26 23:32:00,
2013-03-26 18:42:00,48.0,36.0,30.04,East,100,15.0,21.0,61,-99.99,,,-99.99,,2013-03-26 23:42:00,
2013-03-26 18:52:00,48.0,34.0,30.04,ESE,110,13.0,-999.0,57,-99.99,,,-99.99,,2013-03-26 23:52:00,
2013-03-26 19:02:00,48.0,34.0,30.04,ESE,110,13.0,-999.0,57,-99.99,,,-99.99,,2013-03-27 00:02:00,
2013-03-26 19:12:00,46.0,36.0,30.04,ESE,110,15.0,22.0,65,-99.99,,,-99.99,,2013-03-27 00:12:00,
2013-03-26 19:22:00,45.0,34.0,30.04,East,100,13.0,-999.0,65,-99.99,,,-99.99,,2013-03-27 00:22:00,
2013-03-26 19:32:00,45.0,36.0,30.04,East,100,14.0,18.0,70,-99.99,,,-99.99,,2013-03-27 00:32:00,
2013-03-26 19:42:00,45.0,34.0,30.04,East,100,10.0,18.0,65,-99.99,,,-99.99,,2013-03-27 00:42:00,
2013-03-26 19:52:00,43.0,34.0,30.04,East,90,9.0,-999.0,70,-99.99,,,-99.99,,2013-03-27 00:52:00,
2013-03-26 20:02:00,43.0,34.0,30.04,East,90,9.0,-999.0,70,-99.99,,,-99.99,,2013-03-27 01:02:00,
2013-03-26 20:12:00,43.0,34.0,30.04,East,90,8.0,-999.0,70,-99.99,,,-99.99,,2013-03-27 01:12:00,
2013-03-26 20:22:00,41.0,34.0,30.05,East,90,9.0,-999.0,75,-99.99,,,-99.99,,2013-03-27 01:22:00,
2013-03-26 20:32:00,41.0,34.0,30.05,East,90,9.0,-999.0,75,-99.99,,,-99.99,,2013-03-27 01:32:00,
2013-03-26 20:42:00,39.0,34.0,30.05,East,90,9.0,-999.0,80,-99.99,,,-99.99,,2013-03-27 01:42:00,
2013-03-26 20:52:00,39.0,34.0,30.05,East,90,8.0,-999.0,80,-99.99,,,-99.99,,2013-03-27 01:52:00,
2013-03-26 21:02:00,39.0,34.0,30.05,East,90,8.0,-999.0,80,-99.99,,,-99.99,,2013-03-27 02:02:00,
2013-03-26 21:12:00,39.0,34.0,30.06,East,90,8.0,-999.0,80,-99.99,,,-99.99,,2013-03-27 02:12:00,
2013-03-26 21:22:00,39.0,34.0,30.06,East,90,7.0,-999.0,80,-99.99,,,-99.99,,2013-03-27 02:22:00,
2013-03-26 21:32:00,39.0,34.0,30.06,East,90,9.0,-999.0,80,-99.99,,,-99.99,,2013-03-27 02:32:00,
2013-03-26 21:42:00,39.0,34.0,30.06,East,90,10.0,-999.0,80,-99.99,,,-99.99,,2013-03-27 02:42:00,
2013-03-26 21:52:00,37.0,34.0,30.07,East,90,9.0,-999.0,86,-99.99,,,-99.99,,2013-03-27 02:52:00,
2013-03-26 22:02:00,37.0,34.0,30.07,East,90,9.0,-999.0,86,-99.99,,,-99.99,,2013-03-27 03:02:00,
2013-03-26 22:12:00,37.0,34.0,30.07,East,90,9.0,-999.0,86,-99.99,,,-99.99,,2013-03-27 03:12:00,
2013-03-26 22:22:00,37.0,34.0,30.08,East,90,9.0,-999.0,86,-99.99,,,-99.99,,2013-03-27 03:22:00,
2013-03-26 22:33:00,37.0,34.0,30.08,East,90,10.0,-999.0,86,-99.99,,,-99.99,,2013-03-27 03:33:00,
2013-03-26 22:42:00,37.0,34.0,30.08,East,90,9.0,-999.0,86,-99.99,,,-99.99,,2013-03-27 03:42:00,
2013-03-26 22:52:00,37.0,34.0,30.09,East,90,8.0,-999.0,86,-99.99,,,-99.99,,2013-03-27 03:52:00,
2013-03-26 23:02:00,37.0,34.0,30.09,East,90,8.0,-999.0,86,-99.99,,,-99.99,,2013-03-27 04:02:00,
2013-03-26 23:12:00,37.0,34.0,30.09,East,90,8.0,-999.0,86,-99.99,,,-99.99,,2013-03-27 04:12:00,
2013-03-26 23:23:00,37.0,34.0,30.09,East,80,8.0,-999.0,86,-99.99,,,-99.99,,2013-03-27 04:23:00,
2013-03-26 23:33:00,37.0,34.0,30.10,East,80,9.0,-999.0,86,-99.99,,,-99.99,,2013-03-27 04:33:00,
2013-03-26 23:42:00,37.0,34.0,30.10,East,90,9.0,-999.0,86,-99.99,,,-99.99,,2013-03-27 04:42:00,
2013-03-26 23:52:00,36.0,34.0,30.09,East,90,10.0,-999.0,93,-99.99,,,-99.99,,2013-03-27 04:52:00,